リネ彗星

P/2011 W2 ( Rinner )

English version
Home page
Updated on March 24, 2012

---------------------------------------------------------------------

・ プロフィール

発見日 2011年11月28日
発見光度 17.9等
発見者 Claudine Rinner (Ottmarsheim, France)

・ 写真集

・ 軌道要素

Epoch 2011 Nov. 15.0 TT = JDT 2455880.5
T 2011 Nov. 6.18601 TT                                  MPC
q   2.3030508            (2000.0)            P               Q
n   0.13311363     Peri.  221.05752     -0.03875644     -0.98146850
a   3.7988695      Node   232.01753     +0.96770129     +0.00995275
e   0.3937536      Incl.   13.77391     +0.24910268     -0.19136488
P   7.40
From 573 observations 2011 Nov. 28-2012 Mar. 18, mean residual 0".5.

・ 光度変化

        m1 = 12.5 + 5 logΔ + 10.0 log r

---------------------------------------------------------------------

軌道要素はM.P.E.C. 2012-F59に掲載されたものです。
光度グラフはComet for Windowsで作成したものです。

---------------------------------------------------------------------

Copyright(C) Seiichi Yoshida (comet@aerith.net). All rights reserved.